Location: Oberstdorf
(47.4188°N, 10.2969°E)
Time: 16:59:37
(UTC+02:00)

ISS - Visible Passes

Search period start: 22 October 2019 00:00
Search period end: 31 October 2019 23:00
Orbit: 411 x 421 km, 51.6° (Epoch: 22 October)

Date Brightness Start Highest point End Pass type
(mag) Time Alt. Az. Time Alt. Az. Time Alt. Az.
24 Oct -0.9 06:49:18 10° S 06:51:36 17° SE 06:53:55 10° E visible
25 Oct -0.6 06:02:19 10° SSE 06:03:14 11° SE 06:04:09 10° ESE visible
26 Oct -2.4 06:47:41 10° SW 06:50:51 38° SE 06:54:01 10° ENE visible
27 Oct -1.7 05:00:46 18° S 05:02:21 25° SE 05:05:11 10° E visible
28 Oct -0.9 04:14:38 15° ESE 04:14:38 15° ESE 04:16:05 10° E visible
28 Oct -3.7 05:47:33 15° WSW 05:50:13 83° SSE 05:53:35 10° ENE visible
29 Oct -3.4 05:01:15 52° S 05:01:36 55° SSE 05:04:55 10° ENE visible
30 Oct -1.1 04:14:50 20° E 04:14:50 20° E 04:16:10 10° ENE visible
30 Oct -3.5 05:47:44 22° W 05:49:42 56° NNW 05:53:02 10° ENE visible
31 Oct -3.7 05:01:14 69° NNE 05:01:14 69° NNE 05:04:22 10° ENE visible
